Location: Unspecified
(0.0000°N, 0.0000°E)
Time: 18:58:04
(UTC+00:00)

Vanguard 1 - Pass Details

Date: 22 November 2019
Orbit: 652 x 3832 km, 34.3° (Epoch: 09 December)

Event Time Altitude Azimuth Distance (km) Brightness Sun altitude
Rises 05:54:48 0° 236° (SW) 7,955 14.3 2.1°
Reaches altitude 10° 06:00:18 10° 237° (WSW) 6,933 14.0 3.4°
Maximum altitude 06:23:20 78° 320° (NW) 3,115 12.6 8.8°
Drops below altitude 10° 06:37:28 10° 47° (NE) 4,558 13.9 12.1°
Sets 06:40:16 0° 48° (NE) 5,227 14.2 12.7°
